Regional Weather Roundup
Issued by NWS Charleston, SC

Current Version | Previous Version | Graphics & Text | Print | Product List | Glossary On
Versions: 1 2 3 4 5 6 7 8 9 10 11 12 13 14 15 16 17 18 19 20 21 22 23 24 25 26 27 28 29 30 31 32 33 34 35 36 37 38 39 40 41 42 43 44 45 46 47 48 49 50
976
ASUS42 KCHS 250712
RWRCHS

REGIONAL WEATHER ROUNDUP
NATIONAL WEATHER SERVICE CHARLESTON SC
300 AM EDT SUN JUN 25 2017

NOTE: "FAIR" INDICATES FEW OR NO CLOUDS BELOW 12,000 FEET WITH NO
SIGNIFICANT WEATHER AND/OR OBSTRUCTIONS TO VISIBILITY.

NOT ALL STATIONS ARE QUALITY CONTROLLED. USE DATA WITH CAUTION...
ESPECIALLY DEWPOINT OBSERVATIONS.

SCZ027-030-031-034>040-042>050-250800-
...SOUTHEAST SOUTH CAROLINA...

CITY           SKY/WX    TMP DP  RH WIND       PRES   REMARKS
N CHARLESTON   CLOUDY    78  75  90 SW9       30.04F
WATERFRONT PRK   N/A     78  76  94 SW8G15    30.03S
JOHNS ISLAND   TSTM      77  77 100 S8        30.05F
PINOPOLIS        N/A     79  73  83 VRB3      29.96F
MONCKS CORNER  FAIR      75  72  88 CALM      30.03S
SUMMERVILLE    FAIR      77  72  83 CALM      30.05R
BEAUFORT MCAS  CLOUDY    78  77  96 CALM      30.05R
BEAUFORT ARPT  FAIR      73  73 100 CALM      30.05R
HILTON HEAD IS PTCLDY    81  75  83 N7        30.06R
WALTERBORO     CLOUDY    77  72  83 CALM      30.05R
ALLENDALE      FAIR      75  73  94 CALM      30.03S

...SOUTHERN MIDLANDS AND PEE DEE...

CITY           SKY/WX    TMP DP  RH WIND       PRES   REMARKS
GEORGETOWN     CLOUDY    73  73 100 CALM      30.04F
KINGSTREE      PTSUNNY   73  72  94 CALM      30.03F
ORANGEBURG     CLOUDY    74  73  97 CALM      30.05R
BARNWELL       FAIR      75  75 100 CALM      30.05R
AIKEN          NOT AVBL
MANNING        PTSUNNY   73  73 100 S5        30.03S
COLUMBIA       CLOUDY    75  71  87 CALM      30.03S
SUMTER         MOCLDY    75  72  88 W5        30.01R
FLORENCE       CLOUDY    75  74  96 SW5       30.03S
MYRTLE BEACH   CLOUDY    77  74  90 W5        30.04F
N MYRTLE BEACH MOCLDY    78  75  90 SW9       30.02F

$$

GAZ063-065-086>088-099>101-113>116-118-119-134>141-150-250800-
...SOUTHEAST GEORGIA...

CITY           SKY/WX    TMP DP  RH WIND       PRES   REMARKS
SAVANNAH ARPT  PTCLDY    79  73  82 CALM      30.05S
HUNTER AAF     CLEAR     78  76  91 CALM      30.02F
FORT STEWART   CLEAR     77  74  90 CALM      30.03S
STATESBORO     MOCLDY    76  76 100 SW3       30.05F
SYLVANIA       CLOUDY    76  76 100 CALM      30.06F
CLAXTON        FAIR      74  73  96 CALM      30.05F

...CSRA...CENTRAL AND FAR SOUTHEAST GEORGIA...

CITY           SKY/WX    TMP DP  RH WIND       PRES   REMARKS
THOMSON        LGT RAIN  71  69  94 CALM      30.10S
AUGUSTA-BUSH   CLOUDY    75  73  93 CALM      30.04R
AUGUSTA-DANIEL PTCLDY    75  66  73 CALM      30.06R
SWAINSBORO     TSTM      73  73 100 CALM      30.07F
VIDALIA        TSTM      77  75  94 CALM      30.07S VSB 1
EASTMAN        PTSUNNY   77  77 100 SE5       30.08F
HAZLEHURST       N/A     80  79  97 N7        30.05F
ALMA           CLEAR     79  74  84 W3        30.05F
WAYCROSS       CLEAR     78  78 100 SW3       30.05F
JESUP          FAIR      73  72  94 CALM      30.05F
BAXLEY         FAIR      77  77 100 CALM      30.05F
BRUNSWICK      CLEAR     79  75  89 W7        30.06S
SAINT SIMONS   CLEAR     80  74  81 W8        30.05F

$$

SCZ027-028-034-036>038-045-046-048>050-GAZ119-141-250800-
...LAKE AND SUPPLEMENTAL COASTAL OBSERVATIONS...

STATION/POSITION TIME  TEMP    WIND        PRES    WAVE   SWELL
                       AIR SEA DIR/SP/G            HT/PER HT/PER/DIR
                 (UTC) (F)     (DEG/KT/KT) (MB)    (FT/S) (FT/S/D)
WINYAH BAY       0545   77     220/  5     1017.0
LAKE MURRAY      0620   73     280/  2/  4 1016.3
ACE BASIN NERRS  0545   77        CALM     1018.0
FORT PULASKI     0636      84  270/  5/  7 1017.7F
SAPELO ISLAND    0600   80     210/  5     1018.0

$$

ANZ835-935-AMZ111-154-330-350-352-354-370-450-454-472-250800-
...C-MAN AND BUOY OBSERVATIONS...

STATION/POSITION TIME  TEMP    WIND        PRES    WAVE   SWELL
                       AIR SEA DIR/SP/G            HT/PER HT/PER/DIR
                 (UTC) (F)     (DEG/KT/KT) (MB)    (FT/S) (FT/S/D)
BUOY 41004       0650   81 80  230/ 14/ 17 1017.0F   4/ 5   2/140/ 9
BUOY 41008       0550   82 82  190/ 17/ 21 1017.4    3/ 5   2/110/ 8
FOLLY BEACH CMAN 0600   82     230/ 13/ 17 1018.2F
CAPERS NEARSHORE 0608   86 83  240/ 16/ 23 1017.1F
FRIPP NEARSHORE  0608   83 83  230/ 14/ 19 1017.1F


STATION/POSITION TIME  TEMP    WIND        PRES    WAVE   SWELL
                       AIR SEA DIR/SP/G            HT/PER HT/PER/DIR
                 (UTC) (F)     (DEG/KT/KT) (MB)    (FT/S) (FT/S/D)
5E ST. MARYS GA  0630      79                N/A     3/ 5
FRYING PAN BUOY  0650   80 80  240/ 14/ 17 1016.5F   5/ 6   2/130/ 8
BUOY 41025       0650   78 80  210/ 17/ 19 1014.9F   5/ 6   2/130/ 9
CAPE LOOKOUT NC  0700   77     240/  9/ 13 1015.7S
BUOY 41002       0550   81 80  200/ 14/ 16 1019.7    4/ 6   2/120/ 7
BUOY 41010       0650   82 83  160/ 14/ 16 1019.0F   3/ 7   2/110/ 7
ST AUGUSTINE FL  0700   78 77  190/  6/  7 1018.6F


$$




USA.gov is the U.S. government's official web portal to all federal, state and local government web resources and services.